Year,Month,Day,Hour,Minute,Value (Times are PST for temperature in C)
2017,06,25,00,00,21.10
2017,06,25,00,01,21.10
2017,06,25,00,02,21.20
2017,06,25,00,03,21.20
2017,06,25,00,04,21.20
2017,06,25,00,05,21.20
2017,06,25,00,06,21.20
2017,06,25,00,07,21.20
2017,06,25,00,08,21.20
2017,06,25,00,09,21.20
2017,06,25,00,10,21.20
2017,06,25,00,11,21.20
2017,06,25,00,12,21.20
2017,06,25,00,13,21.20
2017,06,25,00,14,21.20
2017,06,25,00,15,21.20
2017,06,25,00,16,21.20
2017,06,25,00,17,21.20
2017,06,25,00,18,21.20
2017,06,25,00,19,21.20
2017,06,25,00,20,21.20
2017,06,25,00,21,21.20
2017,06,25,00,22,21.20
2017,06,25,00,23,21.20
2017,06,25,00,24,21.20
2017,06,25,00,25,21.20
2017,06,25,00,26,21.30
2017,06,25,00,27,21.30
2017,06,25,00,28,21.30
2017,06,25,00,29,21.30
2017,06,25,00,30,21.30
2017,06,25,00,31,21.30
2017,06,25,00,32,21.30
2017,06,25,00,33,21.30
2017,06,25,00,34,21.30
2017,06,25,00,35,21.30
2017,06,25,00,36,21.30
2017,06,25,00,37,21.30
2017,06,25,00,38,21.30
2017,06,25,00,39,21.30
2017,06,25,00,40,21.30
2017,06,25,00,41,21.30
2017,06,25,00,42,21.30
2017,06,25,00,43,21.30
2017,06,25,00,44,21.30
2017,06,25,00,45,21.30
2017,06,25,00,46,21.30
2017,06,25,00,47,21.20
2017,06,25,00,48,21.20
2017,06,25,00,49,21.20
2017,06,25,00,50,21.20
2017,06,25,00,51,21.20
2017,06,25,00,52,21.30
2017,06,25,00,53,21.30
2017,06,25,00,54,21.20
2017,06,25,00,55,21.30
2017,06,25,00,56,21.30
2017,06,25,00,57,21.30
2017,06,25,00,58,21.30
2017,06,25,00,59,21.30
2017,06,25,01,00,21.30
2017,06,25,01,01,21.30
2017,06,25,01,02,21.30
2017,06,25,01,03,21.30
2017,06,25,01,04,21.40
2017,06,25,01,05,21.40
2017,06,25,01,06,21.50
2017,06,25,01,07,21.50
2017,06,25,01,08,21.50
2017,06,25,01,09,21.50
2017,06,25,01,10,21.50
2017,06,25,01,11,21.60
2017,06,25,01,12,21.50
2017,06,25,01,13,21.50
2017,06,25,01,14,21.50
2017,06,25,01,15,21.50
2017,06,25,01,16,21.50
2017,06,25,01,17,21.50
2017,06,25,01,18,21.40
2017,06,25,01,19,21.40
2017,06,25,01,20,21.40
2017,06,25,01,21,21.40
2017,06,25,01,22,21.40
2017,06,25,01,23,21.40
2017,06,25,01,24,21.40
2017,06,25,01,25,21.40
2017,06,25,01,26,21.30
2017,06,25,01,27,21.30
2017,06,25,01,28,21.30
2017,06,25,01,29,21.30
2017,06,25,01,30,21.30
2017,06,25,01,31,21.20
2017,06,25,01,32,21.20
2017,06,25,01,33,21.20
2017,06,25,01,34,21.20
2017,06,25,01,35,21.20
2017,06,25,01,36,21.10
2017,06,25,01,37,21.10
2017,06,25,01,38,21.10
2017,06,25,01,39,21.10
2017,06,25,01,40,21.10
2017,06,25,01,41,21.10
2017,06,25,01,42,21.10
2017,06,25,01,43,21.00
2017,06,25,01,44,21.00
2017,06,25,01,45,21.00
2017,06,25,01,46,20.90
2017,06,25,01,47,20.90
2017,06,25,01,48,20.90
2017,06,25,01,49,20.90
2017,06,25,01,50,20.90
2017,06,25,01,51,20.90
2017,06,25,01,52,20.80
2017,06,25,01,53,20.80
2017,06,25,01,54,20.80
2017,06,25,01,55,20.80
2017,06,25,01,56,20.80
2017,06,25,01,57,20.80
2017,06,25,01,58,20.70
2017,06,25,01,59,20.70
2017,06,25,02,00,20.70
2017,06,25,02,01,20.70
2017,06,25,02,02,20.70
2017,06,25,02,03,20.70
2017,06,25,02,04,20.70
2017,06,25,02,05,20.70
2017,06,25,02,06,20.70
2017,06,25,02,07,20.60
2017,06,25,02,08,20.60
2017,06,25,02,09,20.60
2017,06,25,02,10,20.60
2017,06,25,02,11,20.50
2017,06,25,02,12,20.50
2017,06,25,02,13,20.40
2017,06,25,02,14,20.40
2017,06,25,02,15,20.30
2017,06,25,02,16,20.20
2017,06,25,02,17,20.20
2017,06,25,02,18,20.10
2017,06,25,02,19,20.10
2017,06,25,02,20,20.00
2017,06,25,02,21,19.90
2017,06,25,02,22,19.90
2017,06,25,02,23,19.90
2017,06,25,02,24,19.80
2017,06,25,02,25,19.80
2017,06,25,02,26,19.80
2017,06,25,02,27,19.80
2017,06,25,02,28,19.80
2017,06,25,02,29,19.70
2017,06,25,02,30,19.70
2017,06,25,02,31,19.70
2017,06,25,02,32,19.70
2017,06,25,02,33,19.70
2017,06,25,02,34,19.70
2017,06,25,02,35,19.70
2017,06,25,02,36,19.70
2017,06,25,02,37,19.70
2017,06,25,02,38,19.70
2017,06,25,02,39,19.70
2017,06,25,02,40,19.70
2017,06,25,02,41,19.70
2017,06,25,02,42,19.70
2017,06,25,02,43,19.70
2017,06,25,02,44,19.70
2017,06,25,02,45,19.70
2017,06,25,02,46,19.70
2017,06,25,02,47,19.70
2017,06,25,02,48,19.70
2017,06,25,02,49,19.70
2017,06,25,02,50,19.70
2017,06,25,02,51,19.70
2017,06,25,02,52,19.80
2017,06,25,02,53,19.80
2017,06,25,02,54,19.80
2017,06,25,02,55,19.80
2017,06,25,02,56,19.80
2017,06,25,02,57,19.80
2017,06,25,02,58,19.90
2017,06,25,02,59,19.90
2017,06,25,03,00,19.90
2017,06,25,03,01,19.90
2017,06,25,03,02,19.90
2017,06,25,03,03,20.00
2017,06,25,03,04,20.00
2017,06,25,03,05,20.00
2017,06,25,03,06,20.00
2017,06,25,03,07,20.00
2017,06,25,03,08,20.10
2017,06,25,03,09,20.10
2017,06,25,03,10,20.10
2017,06,25,03,11,20.10
2017,06,25,03,12,20.10
2017,06,25,03,13,20.10
2017,06,25,03,14,20.10
2017,06,25,03,15,20.10
2017,06,25,03,16,20.10
2017,06,25,03,17,20.10
2017,06,25,03,18,20.10
2017,06,25,03,19,20.10
2017,06,25,03,20,20.10
2017,06,25,03,21,20.20
2017,06,25,03,22,20.20
2017,06,25,03,23,20.20
2017,06,25,03,24,20.20
2017,06,25,03,25,20.20
2017,06,25,03,26,20.20
2017,06,25,03,27,20.20
2017,06,25,03,28,20.20
2017,06,25,03,29,20.20
2017,06,25,03,30,20.30
2017,06,25,03,31,20.30
2017,06,25,03,32,20.30
2017,06,25,03,33,20.30
2017,06,25,03,34,20.30
2017,06,25,03,35,20.30
2017,06,25,03,36,20.30
2017,06,25,03,37,20.30
2017,06,25,03,38,20.30
2017,06,25,03,39,20.30
2017,06,25,03,40,20.30
2017,06,25,03,41,20.30
2017,06,25,03,42,20.30
2017,06,25,03,43,20.30
2017,06,25,03,44,20.30
2017,06,25,03,45,20.30
2017,06,25,03,46,20.30
2017,06,25,03,47,20.30
2017,06,25,03,48,20.30
2017,06,25,03,49,20.30
2017,06,25,03,50,20.30
2017,06,25,03,51,20.30
2017,06,25,03,52,20.30
2017,06,25,03,53,20.30
2017,06,25,03,54,20.30
2017,06,25,03,55,20.30
2017,06,25,03,56,20.30
2017,06,25,03,57,20.20
2017,06,25,03,58,20.20
2017,06,25,03,59,20.20
2017,06,25,04,00,20.10
2017,06,25,04,01,20.10
2017,06,25,04,02,20.10
2017,06,25,04,03,20.00
2017,06,25,04,04,20.00
2017,06,25,04,05,19.90
2017,06,25,04,06,19.90
2017,06,25,04,07,19.90
2017,06,25,04,08,19.90
2017,06,25,04,09,19.80
2017,06,25,04,10,19.80
2017,06,25,04,11,19.80
2017,06,25,04,12,19.80
2017,06,25,04,13,19.80
2017,06,25,04,14,19.70
2017,06,25,04,15,19.70
2017,06,25,04,16,19.70
2017,06,25,04,17,19.70
2017,06,25,04,18,19.70
2017,06,25,04,19,19.70
2017,06,25,04,20,19.60
2017,06,25,04,21,19.60
2017,06,25,04,22,19.60
2017,06,25,04,23,19.60
2017,06,25,04,24,19.60
2017,06,25,04,25,19.50
2017,06,25,04,26,19.50
2017,06,25,04,27,19.50
2017,06,25,04,28,19.50
2017,06,25,04,29,19.50
2017,06,25,04,30,19.40
2017,06,25,04,31,19.40
2017,06,25,04,32,19.40
2017,06,25,04,33,19.40
2017,06,25,04,34,19.40
2017,06,25,04,35,19.40
2017,06,25,04,36,19.30
2017,06,25,04,37,19.30
2017,06,25,04,38,19.30
2017,06,25,04,39,19.30
2017,06,25,04,40,19.30
2017,06,25,04,41,19.30
2017,06,25,04,42,19.20
2017,06,25,04,43,19.20
2017,06,25,04,44,19.20
2017,06,25,04,45,19.20
2017,06,25,04,46,19.20
2017,06,25,04,47,19.20
2017,06,25,04,48,19.20
2017,06,25,04,49,19.10
2017,06,25,04,50,19.10
2017,06,25,04,51,19.10
2017,06,25,04,52,19.10
2017,06,25,04,53,19.10
2017,06,25,04,54,19.10
2017,06,25,04,55,19.10
2017,06,25,04,56,19.10
2017,06,25,04,57,19.10
2017,06,25,04,58,19.00
2017,06,25,04,59,19.00
2017,06,25,05,00,19.00
2017,06,25,05,01,19.00
2017,06,25,05,02,19.00
2017,06,25,05,03,19.00
2017,06,25,05,04,19.00
2017,06,25,05,05,19.00
2017,06,25,05,06,19.00
2017,06,25,05,07,19.00
2017,06,25,05,08,19.00
2017,06,25,05,09,19.00
2017,06,25,05,10,19.10
2017,06,25,05,11,19.10
2017,06,25,05,12,19.10
2017,06,25,05,13,19.10
2017,06,25,05,14,19.20
2017,06,25,05,15,19.20
2017,06,25,05,16,19.20
2017,06,25,05,17,19.30
2017,06,25,05,18,19.30
2017,06,25,05,19,19.30
2017,06,25,05,20,19.30
2017,06,25,05,21,19.30
2017,06,25,05,22,19.40
2017,06,25,05,23,19.40
2017,06,25,05,24,19.40
2017,06,25,05,25,19.40
2017,06,25,05,26,19.40
2017,06,25,05,27,19.40
2017,06,25,05,28,19.40
2017,06,25,05,29,19.40
2017,06,25,05,30,19.40
2017,06,25,05,31,19.40
2017,06,25,05,32,19.40
2017,06,25,05,33,19.40
2017,06,25,05,34,19.40
2017,06,25,05,35,19.40
2017,06,25,05,36,19.40
2017,06,25,05,37,19.40
2017,06,25,05,38,19.30
2017,06,25,05,39,19.30
2017,06,25,05,40,19.30
2017,06,25,05,41,19.30
2017,06,25,05,42,19.30
2017,06,25,05,43,19.30
2017,06,25,05,44,19.30
2017,06,25,05,45,19.30
2017,06,25,05,46,19.30
2017,06,25,05,47,19.30
2017,06,25,05,48,19.40
2017,06,25,05,49,19.40
2017,06,25,05,50,19.40
2017,06,25,05,51,19.40
2017,06,25,05,52,19.40
2017,06,25,05,53,19.40
2017,06,25,05,54,19.50
2017,06,25,05,55,19.50
2017,06,25,05,56,19.50
2017,06,25,05,57,19.60
2017,06,25,05,58,19.60
2017,06,25,05,59,19.60
2017,06,25,06,00,19.70
2017,06,25,06,01,19.70
2017,06,25,06,02,19.80
2017,06,25,06,03,19.80
2017,06,25,06,04,19.90
2017,06,25,06,05,20.00
2017,06,25,06,06,20.10
2017,06,25,06,07,20.20
2017,06,25,06,08,20.20
2017,06,25,06,09,20.30
2017,06,25,06,10,20.40
2017,06,25,06,11,20.50
2017,06,25,06,12,20.50
2017,06,25,06,13,20.60
2017,06,25,06,14,20.70
2017,06,25,06,15,20.80
2017,06,25,06,16,20.80
2017,06,25,06,17,20.90
2017,06,25,06,18,21.00
2017,06,25,06,19,21.00
2017,06,25,06,20,21.10
2017,06,25,06,21,21.20
2017,06,25,06,22,21.20
2017,06,25,06,23,21.30
2017,06,25,06,24,21.30
2017,06,25,06,25,21.40
2017,06,25,06,26,21.40
2017,06,25,06,27,21.50
2017,06,25,06,28,21.50
2017,06,25,06,29,21.50
2017,06,25,06,30,21.60
2017,06,25,06,31,21.60
2017,06,25,06,32,21.60
2017,06,25,06,33,21.70
2017,06,25,06,34,21.70
2017,06,25,06,35,21.70
2017,06,25,06,36,21.70
2017,06,25,06,37,21.70
2017,06,25,06,38,21.70
2017,06,25,06,39,21.70
2017,06,25,06,40,21.70
2017,06,25,06,41,21.70
2017,06,25,06,42,21.70
2017,06,25,06,43,21.70
2017,06,25,06,44,21.70
2017,06,25,06,45,21.70
2017,06,25,06,46,21.70
2017,06,25,06,47,21.70
2017,06,25,06,48,21.70
2017,06,25,06,49,21.70
2017,06,25,06,50,21.70
2017,06,25,06,51,21.70
2017,06,25,06,52,21.70
2017,06,25,06,53,21.70
2017,06,25,06,54,21.70
2017,06,25,06,55,21.60
2017,06,25,06,56,21.60
2017,06,25,06,57,21.60
2017,06,25,06,58,21.50
2017,06,25,06,59,21.50
2017,06,25,07,00,21.40
2017,06,25,07,01,21.40
2017,06,25,07,02,21.40
2017,06,25,07,03,21.30
2017,06,25,07,04,21.30
2017,06,25,07,05,21.30
2017,06,25,07,06,21.30
2017,06,25,07,07,21.30
2017,06,25,07,08,21.30
2017,06,25,07,09,21.30
2017,06,25,07,10,21.30
2017,06,25,07,11,21.40
2017,06,25,07,12,21.40
2017,06,25,07,13,21.50
2017,06,25,07,14,21.50
2017,06,25,07,15,21.60
2017,06,25,07,16,21.60
2017,06,25,07,17,21.60
2017,06,25,07,18,21.70
2017,06,25,07,19,21.70
2017,06,25,07,20,21.70
2017,06,25,07,21,21.80
2017,06,25,07,22,21.80
2017,06,25,07,23,21.80
2017,06,25,07,24,21.80
2017,06,25,07,25,21.80
2017,06,25,07,26,21.80
2017,06,25,07,27,21.80
2017,06,25,07,28,21.70
2017,06,25,07,29,21.70
2017,06,25,07,30,21.80
2017,06,25,07,31,21.80
2017,06,25,07,32,21.80
2017,06,25,07,33,21.80
2017,06,25,07,34,21.80
2017,06,25,07,35,21.80
2017,06,25,07,36,21.80
2017,06,25,07,37,21.80
2017,06,25,07,38,21.80
2017,06,25,07,39,21.70
2017,06,25,07,40,21.70
2017,06,25,07,41,21.70
2017,06,25,07,42,21.70
2017,06,25,07,43,21.60
2017,06,25,07,44,21.60
2017,06,25,07,45,21.60
2017,06,25,07,46,21.60
2017,06,25,07,47,21.50
2017,06,25,07,48,21.50
2017,06,25,07,49,21.50
2017,06,25,07,50,21.50
2017,06,25,07,51,21.40
2017,06,25,07,52,21.40
2017,06,25,07,53,21.40
2017,06,25,07,54,21.40
2017,06,25,07,55,21.40
2017,06,25,07,56,21.40
2017,06,25,07,57,21.40
2017,06,25,07,58,21.40
2017,06,25,07,59,21.40
2017,06,25,08,00,21.40
2017,06,25,08,01,21.40
2017,06,25,08,02,21.40
2017,06,25,08,03,21.40
2017,06,25,08,04,21.40
2017,06,25,08,05,21.40
2017,06,25,08,06,21.40
2017,06,25,08,07,21.40
2017,06,25,08,08,21.40
2017,06,25,08,09,21.50
2017,06,25,08,10,21.50
2017,06,25,08,11,21.60
2017,06,25,08,12,21.60
2017,06,25,08,13,21.70
2017,06,25,08,14,21.70
2017,06,25,08,15,21.70
2017,06,25,08,16,21.70
2017,06,25,08,17,21.80
2017,06,25,08,18,21.80
2017,06,25,08,19,21.80
2017,06,25,08,20,21.80
2017,06,25,08,21,21.80
2017,06,25,08,22,21.90
2017,06,25,08,23,21.90
2017,06,25,08,24,21.90
2017,06,25,08,25,22.00
2017,06,25,08,26,22.00
2017,06,25,08,27,22.00
2017,06,25,08,28,22.00
2017,06,25,08,29,22.10
2017,06,25,08,30,22.10
2017,06,25,08,31,22.10
2017,06,25,08,32,22.20
2017,06,25,08,33,22.20
2017,06,25,08,34,22.20
2017,06,25,08,35,22.20
2017,06,25,08,36,22.20
2017,06,25,08,37,22.20
2017,06,25,08,38,22.20
2017,06,25,08,39,22.20
2017,06,25,08,40,22.20
2017,06,25,08,41,22.20
2017,06,25,08,42,22.20
2017,06,25,08,43,22.20
2017,06,25,08,44,22.20
2017,06,25,08,45,22.20
2017,06,25,08,46,22.30
2017,06,25,08,47,22.30
2017,06,25,08,48,22.30
2017,06,25,08,49,22.40
2017,06,25,08,50,22.40
2017,06,25,08,51,22.50
2017,06,25,08,52,22.50
2017,06,25,08,53,22.60
2017,06,25,08,54,22.70
2017,06,25,08,55,22.70
2017,06,25,08,56,22.80
2017,06,25,08,57,22.90
2017,06,25,08,58,22.90
2017,06,25,08,59,23.00
2017,06,25,09,00,23.10
2017,06,25,09,01,23.10
2017,06,25,09,02,23.10
2017,06,25,09,03,23.00
2017,06,25,09,04,23.00
2017,06,25,09,05,23.00
2017,06,25,09,06,23.00
2017,06,25,09,07,22.90
2017,06,25,09,08,22.90
2017,06,25,09,09,22.90
2017,06,25,09,10,22.90
2017,06,25,09,11,22.90
2017,06,25,09,12,22.90
2017,06,25,09,13,23.00
2017,06,25,09,14,23.00
2017,06,25,09,15,23.00
2017,06,25,09,16,23.10
2017,06,25,09,17,23.10
2017,06,25,09,18,23.10
2017,06,25,09,19,23.10
2017,06,25,09,20,23.10
2017,06,25,09,21,23.10
2017,06,25,09,22,23.10
2017,06,25,09,23,23.00
2017,06,25,09,24,23.00
2017,06,25,09,25,23.00
2017,06,25,09,26,23.00
2017,06,25,09,27,23.00
2017,06,25,09,28,23.00
2017,06,25,09,29,23.00
2017,06,25,09,30,23.00
2017,06,25,09,31,23.10
2017,06,25,09,32,23.10
2017,06,25,09,33,23.20
2017,06,25,09,34,23.20
2017,06,25,09,35,23.30
2017,06,25,09,36,23.30
2017,06,25,09,37,23.40
2017,06,25,09,38,23.40
2017,06,25,09,39,23.50
2017,06,25,09,40,23.50
2017,06,25,09,41,23.60
2017,06,25,09,42,23.60
2017,06,25,09,43,23.60
2017,06,25,09,44,23.60
2017,06,25,09,45,23.60
2017,06,25,09,46,23.70
2017,06,25,09,47,23.70
2017,06,25,09,48,23.70
2017,06,25,09,49,23.70
2017,06,25,09,50,23.70
2017,06,25,09,51,23.70
2017,06,25,09,52,23.80
2017,06,25,09,53,23.80
2017,06,25,09,54,23.80
2017,06,25,09,55,23.80
2017,06,25,09,56,23.80
2017,06,25,09,57,23.90
2017,06,25,09,58,23.90
2017,06,25,09,59,24.00
2017,06,25,10,00,24.00
2017,06,25,10,01,24.10
2017,06,25,10,02,24.10
2017,06,25,10,03,24.10
2017,06,25,10,04,24.10
2017,06,25,10,05,24.00
2017,06,25,10,06,24.00
2017,06,25,10,07,23.90
2017,06,25,10,08,23.90
2017,06,25,10,09,23.90
2017,06,25,10,10,23.90
2017,06,25,10,11,23.90
2017,06,25,10,12,23.90
2017,06,25,10,13,23.90
2017,06,25,10,14,23.90
2017,06,25,10,15,23.90
2017,06,25,10,16,23.80
2017,06,25,10,17,23.80
2017,06,25,10,18,23.80
2017,06,25,10,19,23.80
2017,06,25,10,20,23.80
2017,06,25,10,21,23.80
2017,06,25,10,22,23.80
2017,06,25,10,23,23.90
2017,06,25,10,24,24.00
2017,06,25,10,25,24.00
2017,06,25,10,26,24.10
2017,06,25,10,27,24.20
2017,06,25,10,28,24.30
2017,06,25,10,29,24.30
2017,06,25,10,30,24.40
2017,06,25,10,31,24.40
2017,06,25,10,32,24.40
2017,06,25,10,33,24.50
2017,06,25,10,34,24.60
2017,06,25,10,35,24.60
2017,06,25,10,36,24.70
2017,06,25,10,37,24.80
2017,06,25,10,38,24.80
2017,06,25,10,39,24.90
2017,06,25,10,40,24.90
2017,06,25,10,41,24.90
2017,06,25,10,42,24.90
2017,06,25,10,43,24.90
2017,06,25,10,44,25.00
2017,06,25,10,45,25.00
2017,06,25,10,46,25.10
2017,06,25,10,47,25.10
2017,06,25,10,48,25.10
2017,06,25,10,49,25.10
2017,06,25,10,50,25.10
2017,06,25,10,51,25.10
2017,06,25,10,52,25.10
2017,06,25,10,53,25.10
2017,06,25,10,54,25.10
2017,06,25,10,55,25.00
2017,06,25,10,56,25.00
2017,06,25,10,57,24.90
2017,06,25,10,58,24.90
2017,06,25,10,59,25.00
2017,06,25,11,00,25.00
2017,06,25,11,01,25.00
2017,06,25,11,02,25.00
2017,06,25,11,03,25.00
2017,06,25,11,04,25.00
2017,06,25,11,05,25.00
2017,06,25,11,06,24.90
2017,06,25,11,07,24.90
2017,06,25,11,08,24.80
2017,06,25,11,09,24.80
2017,06,25,11,10,24.80
2017,06,25,11,11,24.80
2017,06,25,11,12,24.80
2017,06,25,11,13,24.80
2017,06,25,11,14,24.80
2017,06,25,11,15,24.80
2017,06,25,11,16,24.70
2017,06,25,11,17,24.60
2017,06,25,11,18,24.50
2017,06,25,11,19,24.50
2017,06,25,11,20,24.40
2017,06,25,11,21,24.40
2017,06,25,11,22,24.30
2017,06,25,11,23,24.30
2017,06,25,11,24,24.30
2017,06,25,11,25,24.30
2017,06,25,11,26,24.30
2017,06,25,11,27,24.30
2017,06,25,11,28,24.30
2017,06,25,11,29,24.40
2017,06,25,11,30,24.40
2017,06,25,11,31,24.50
2017,06,25,11,32,24.50
2017,06,25,11,33,24.60
2017,06,25,11,34,24.60
2017,06,25,11,35,24.70
2017,06,25,11,36,24.70
2017,06,25,11,37,24.80
2017,06,25,11,38,24.80
2017,06,25,11,39,24.80
2017,06,25,11,40,24.90
2017,06,25,11,41,24.90
2017,06,25,11,42,24.90
2017,06,25,11,43,24.90
2017,06,25,11,44,24.90
2017,06,25,11,45,25.00
2017,06,25,11,46,25.00
2017,06,25,11,47,25.10
2017,06,25,11,48,25.10
2017,06,25,11,49,25.20
2017,06,25,11,50,25.20
2017,06,25,11,51,25.30
2017,06,25,11,52,25.30
2017,06,25,11,53,25.30
2017,06,25,11,54,25.40
2017,06,25,11,55,25.40
2017,06,25,11,56,25.40
2017,06,25,11,57,25.40
2017,06,25,11,58,25.50
2017,06,25,11,59,25.50
2017,06,25,12,00,25.50
2017,06,25,12,01,25.50
2017,06,25,12,02,25.50
2017,06,25,12,03,25.60
2017,06,25,12,04,25.60
2017,06,25,12,05,25.70
2017,06,25,12,06,25.70
2017,06,25,12,07,25.70
2017,06,25,12,08,25.80
2017,06,25,12,09,25.80
2017,06,25,12,10,25.90
2017,06,25,12,11,25.90
2017,06,25,12,12,25.90
2017,06,25,12,13,25.90
2017,06,25,12,14,25.90
2017,06,25,12,15,25.90
2017,06,25,12,16,25.90
2017,06,25,12,17,25.90
2017,06,25,12,18,25.80
2017,06,25,12,19,25.80
2017,06,25,12,20,25.80
2017,06,25,12,21,25.80
2017,06,25,12,22,25.90
2017,06,25,12,23,25.90
2017,06,25,12,24,25.90
2017,06,25,12,25,26.00
2017,06,25,12,26,26.00
2017,06,25,12,27,26.10
2017,06,25,12,28,26.10
2017,06,25,12,29,26.20
2017,06,25,12,30,26.20
2017,06,25,12,31,26.20
2017,06,25,12,32,26.30
2017,06,25,12,33,26.30
2017,06,25,12,34,26.30
2017,06,25,12,35,26.40
2017,06,25,12,36,26.40
2017,06,25,12,37,26.40
2017,06,25,12,38,26.40
2017,06,25,12,39,26.40
2017,06,25,12,40,26.40
2017,06,25,12,41,26.50
2017,06,25,12,42,26.50
2017,06,25,12,43,26.40
2017,06,25,12,44,26.40
2017,06,25,12,45,26.40
2017,06,25,12,46,26.40
2017,06,25,12,47,26.40
2017,06,25,12,48,26.40
2017,06,25,12,49,26.50
2017,06,25,12,50,26.50
2017,06,25,12,51,26.50
2017,06,25,12,52,26.60
2017,06,25,12,53,26.60
2017,06,25,12,54,26.70
2017,06,25,12,55,26.80
2017,06,25,12,56,26.90
2017,06,25,12,57,26.90
2017,06,25,12,58,27.00
2017,06,25,12,59,26.90
2017,06,25,13,00,26.90
2017,06,25,13,01,26.90
2017,06,25,13,02,26.90
2017,06,25,13,03,26.90
2017,06,25,13,04,26.90
2017,06,25,13,05,26.90
2017,06,25,13,06,26.90
2017,06,25,13,07,26.80
2017,06,25,13,08,26.80
2017,06,25,13,09,26.80
2017,06,25,13,10,26.70
2017,06,25,13,11,26.70
2017,06,25,13,12,26.70
2017,06,25,13,13,26.70
2017,06,25,13,14,26.60
2017,06,25,13,15,26.60
2017,06,25,13,16,26.60
2017,06,25,13,17,26.60
2017,06,25,13,18,26.50
2017,06,25,13,19,26.50
2017,06,25,13,20,26.40
2017,06,25,13,21,26.40
2017,06,25,13,22,26.30
2017,06,25,13,23,26.30
2017,06,25,13,24,26.20
2017,06,25,13,25,26.20
2017,06,25,13,26,26.20
2017,06,25,13,27,26.20
2017,06,25,13,28,26.20
2017,06,25,13,29,26.20
2017,06,25,13,30,26.20
2017,06,25,13,31,26.30
2017,06,25,13,32,26.30
2017,06,25,13,33,26.40
2017,06,25,13,34,26.50
2017,06,25,13,35,26.60
2017,06,25,13,36,26.70
2017,06,25,13,37,26.80
2017,06,25,13,38,26.80
2017,06,25,13,39,26.80
2017,06,25,13,40,26.90
2017,06,25,13,41,27.00
2017,06,25,13,42,27.10
2017,06,25,13,43,27.20
2017,06,25,13,44,27.30
2017,06,25,13,45,27.40
2017,06,25,13,46,27.50
2017,06,25,13,47,27.60
2017,06,25,13,48,27.60
2017,06,25,13,49,27.70
2017,06,25,13,50,27.80
2017,06,25,13,51,27.80
2017,06,25,13,52,27.90
2017,06,25,13,53,27.90
2017,06,25,13,54,28.00
2017,06,25,13,55,28.00
2017,06,25,13,56,28.10
2017,06,25,13,57,28.10
2017,06,25,13,58,28.00
2017,06,25,13,59,28.00
2017,06,25,14,00,28.00
2017,06,25,14,01,28.10
2017,06,25,14,02,28.10
2017,06,25,14,03,28.10
2017,06,25,14,04,28.10
2017,06,25,14,05,28.10
2017,06,25,14,06,28.10
2017,06,25,14,07,28.10
2017,06,25,14,08,28.10
2017,06,25,14,09,28.20
2017,06,25,14,10,28.20
2017,06,25,14,11,28.20
2017,06,25,14,12,28.20
2017,06,25,14,13,28.20
2017,06,25,14,14,28.20
2017,06,25,14,15,28.10
2017,06,25,14,16,28.10
2017,06,25,14,17,28.20
2017,06,25,14,18,28.20
2017,06,25,14,19,28.20
2017,06,25,14,20,28.20
2017,06,25,14,21,28.20
2017,06,25,14,22,28.20
2017,06,25,14,23,28.20
2017,06,25,14,24,28.30
2017,06,25,14,25,28.30
2017,06,25,14,26,28.40
2017,06,25,14,27,28.50
2017,06,25,14,28,28.60
2017,06,25,14,29,28.70
2017,06,25,14,30,28.70
2017,06,25,14,31,28.80
2017,06,25,14,32,28.80
2017,06,25,14,33,28.90
2017,06,25,14,34,29.00
2017,06,25,14,35,29.10
2017,06,25,14,36,29.10
2017,06,25,14,37,29.10
2017,06,25,14,38,29.10
2017,06,25,14,39,29.10
2017,06,25,14,40,29.10
2017,06,25,14,41,29.20
2017,06,25,14,42,29.20
2017,06,25,14,43,29.20
2017,06,25,14,44,29.30
2017,06,25,14,45,29.30
2017,06,25,14,46,29.30
2017,06,25,14,47,29.30
2017,06,25,14,48,29.30
2017,06,25,14,49,29.40
2017,06,25,14,50,29.40
2017,06,25,14,51,29.40
2017,06,25,14,52,29.40
2017,06,25,14,53,29.40
2017,06,25,14,54,29.50
2017,06,25,14,55,29.50
2017,06,25,14,56,29.60
2017,06,25,14,57,29.60
2017,06,25,14,58,29.60
2017,06,25,14,59,29.70
2017,06,25,15,00,29.70
2017,06,25,15,01,29.70
2017,06,25,15,02,29.70
2017,06,25,15,03,29.80
2017,06,25,15,04,29.80
2017,06,25,15,05,29.80
2017,06,25,15,06,29.80
2017,06,25,15,07,29.80
2017,06,25,15,08,29.80
2017,06,25,15,09,29.80
2017,06,25,15,10,29.80
2017,06,25,15,11,29.70
2017,06,25,15,12,29.70
2017,06,25,15,13,29.70
2017,06,25,15,14,29.70
2017,06,25,15,15,29.70
2017,06,25,15,16,29.60
2017,06,25,15,17,29.70
2017,06,25,15,18,29.70
2017,06,25,15,19,29.70
2017,06,25,15,20,29.80
2017,06,25,15,21,29.80
2017,06,25,15,22,29.90
2017,06,25,15,23,29.90
2017,06,25,15,24,29.90
2017,06,25,15,25,30.00
2017,06,25,15,26,30.00
2017,06,25,15,27,30.00
2017,06,25,15,28,30.00
2017,06,25,15,29,30.00
2017,06,25,15,30,29.90
2017,06,25,15,31,30.00
2017,06,25,15,32,30.00
2017,06,25,15,33,29.90
2017,06,25,15,34,29.90
2017,06,25,15,35,30.00
2017,06,25,15,36,29.90
2017,06,25,15,37,30.00
2017,06,25,15,38,29.90
2017,06,25,15,39,29.90
2017,06,25,15,40,29.90
2017,06,25,15,41,29.90
2017,06,25,15,42,29.90
2017,06,25,15,43,29.90
2017,06,25,15,44,29.80
2017,06,25,15,45,29.80
2017,06,25,15,46,29.80
2017,06,25,15,47,29.80
2017,06,25,15,48,29.70
2017,06,25,15,49,29.70
2017,06,25,15,50,29.70
2017,06,25,15,51,29.70
2017,06,25,15,52,29.70
2017,06,25,15,53,29.80
2017,06,25,15,54,29.90
2017,06,25,15,55,29.90
2017,06,25,15,56,29.90
2017,06,25,15,57,29.90
2017,06,25,15,58,29.90
2017,06,25,15,59,29.90
2017,06,25,16,00,29.90
2017,06,25,16,01,29.90
2017,06,25,16,02,29.90
2017,06,25,16,03,29.90
2017,06,25,16,04,29.90
2017,06,25,16,05,29.90
2017,06,25,16,06,29.80
2017,06,25,16,07,29.80
2017,06,25,16,08,29.70
2017,06,25,16,09,29.60
2017,06,25,16,10,29.50
2017,06,25,16,11,29.50
2017,06,25,16,12,29.40
2017,06,25,16,13,29.40
2017,06,25,16,14,29.30
2017,06,25,16,15,29.30
2017,06,25,16,16,29.20
2017,06,25,16,17,29.20
2017,06,25,16,18,29.10
2017,06,25,16,19,29.10
2017,06,25,16,20,29.10
2017,06,25,16,21,29.10
2017,06,25,16,22,29.10
2017,06,25,16,23,29.00
2017,06,25,16,24,29.00
2017,06,25,16,25,28.90
2017,06,25,16,26,28.80
2017,06,25,16,27,28.80
2017,06,25,16,28,28.70
2017,06,25,16,29,28.60
2017,06,25,16,30,28.50
2017,06,25,16,31,28.40
2017,06,25,16,32,28.30
2017,06,25,16,33,28.30
2017,06,25,16,34,28.20
2017,06,25,16,35,28.10
2017,06,25,16,36,28.10
2017,06,25,16,37,28.00
2017,06,25,16,38,28.00
2017,06,25,16,39,27.90
2017,06,25,16,40,27.90
2017,06,25,16,41,27.90
2017,06,25,16,42,27.90
2017,06,25,16,43,27.90
2017,06,25,16,44,27.90
2017,06,25,16,45,27.90
2017,06,25,16,46,27.90
2017,06,25,16,47,27.90
2017,06,25,16,48,27.90
2017,06,25,16,49,27.90
2017,06,25,16,50,28.00
2017,06,25,16,51,28.00
2017,06,25,16,52,28.00
2017,06,25,16,53,28.00
2017,06,25,16,54,28.10
2017,06,25,16,55,28.10
2017,06,25,16,56,28.10
2017,06,25,16,57,28.10
2017,06,25,16,58,28.10
2017,06,25,16,59,28.20
2017,06,25,17,00,28.20
2017,06,25,17,01,28.20
2017,06,25,17,02,28.30
2017,06,25,17,03,28.30
2017,06,25,17,04,28.30
2017,06,25,17,05,28.40
2017,06,25,17,06,28.40
2017,06,25,17,07,28.50
2017,06,25,17,08,28.50
2017,06,25,17,09,28.60
2017,06,25,17,10,28.60
2017,06,25,17,11,28.70
2017,06,25,17,12,28.70
2017,06,25,17,13,28.80
2017,06,25,17,14,28.90
2017,06,25,17,15,29.00
2017,06,25,17,16,29.00
2017,06,25,17,17,29.10
2017,06,25,17,18,29.20
2017,06,25,17,19,29.20